[[{"header":{"parameterUnit":"m.s-1","parameterCategory":1,"la1":30.2991,"la2":30.254,"lo1":-89.0895,"lo2":-89.0444,"dy":0.0017,"dx":0.0017,"nx":28,"ny":28,"refTime":"2025-04-28T03:00:00:Z","depth":0,"parameterNumber":2,"parameterNumberName":"U-component_of_WINDS"},"data":[0,0,0,0,0,0,0,0,0,0,0,0,0,0,0,0,0,0,0,0,0,0,0,0,0,0,0,0,0,0,0,0,0,0,0,0,0,0,0,0,0,0,0,0,0,0,0,0,0,0,0,0,0,0,0,0,0,0,1.0431,1.0433,0,1.0537,1.0538,1.0539,1.0574,1.0574,1.0574,1.0573,1.0678,1.0681,1.0685,0,0,0,0,0,0,0,0,0,0,0,0,0,1.0257,1.026,1.0431,1.0433,1.0434,1.0537,1.0538,1.0539,1.0574,1.0574,1.0573,1.0573,1.0677,1.0681,1.0685,0,0,0,0,0,0,0,0,0,0,0,0,0,1.0344,1.0261,1.0431,1.0464,1.0468,1.0536,1.0538,1.054,1.0575,1.0574,1.0573,1.0573,1.0676,1.0681,1.0685,1.0728,0,0,1.07,1.0702,0,0,0,0,0,0,0,0,1.0339,1.0351,1.0458,1.0462,1.0466,1.0542,1.0515,1.0603,1.0575,1.0534,1.0573,1.0572,1.0633,1.0642,1.0663,1.0733,1.0738,1.0701,1.0703,1.0706,1.0707,0,0,0,0,0,0,0,1.0333,1.0346,1.0473,1.0459,1.0464,1.0472,1.0484,1.0532,1.0586,1.0537,1.054,1.0552,1.0635,1.0658,1.0665,1.0739,1.07,1.0705,1.0708,1.071,1.0849,1.085,0,0,0,0,0,0,1.0322,1.0341,1.047,1.0476,1.04,1.0476,1.0489,1.0518,1.0585,1.0595,1.0553,1.0554,1.065,1.066,1.0669,1.0723,1.0705,1.071,1.0713,1.0848,1.0849,1.085,0,0,0,0,0,0,1.0318,1.0333,1.0465,1.041,1.0427,1.048,1.0512,1.0521,1.0543,1.0597,1.0607,1.0566,1.065,1.0662,1.0713,1.0727,1.0712,1.0717,1.0847,1.0848,1.0849,1.0831,0,0,0,0,0,0,1.0313,1.0332,1.0349,1.041,1.043,1.0508,1.0513,1.0523,1.0552,1.0554,1.0612,1.0621,1.065,1.0706,1.0718,1.0734,1.072,1.0846,1.0848,1.0849,1.0831,1.0832,1.0832,0,0,0,0,0,1.0307,1.0339,1.035,1.0365,1.0453,1.0509,1.0521,1.0554,1.0553,1.057,1.0605,1.0619,1.0724,1.0711,1.0725,1.0742,1.0845,1.0847,1.0849,1.083,1.0831,1.0832,0,0,0,0,0,0,1.0278,1.0348,1.036,1.0414,1.0455,1.0515,1.0538,1.0554,1.0597,1.0597,1.0636,1.0649,1.0696,1.0724,1.0709,1.0786,1.0785,1.079,1.0766,1.0768,1.0769,1.076,1.0724,0,0,0,0,0,1.0278,1.0319,1.0378,1.0419,1.0439,1.0485,1.0511,1.0533,1.0578,1.0595,1.0633,1.0675,1.0717,1.0744,1.0786,1.0835,1.0848,1.0854,1.0854,1.0855,1.0858,1.0886,1.0889,1.0856,1.0856,1.0856,0,0,1.0278,1.0322,1.0345,1.0414,1.0449,1.0489,1.05,1.0542,1.0572,1.0601,1.0652,1.0681,1.073,1.078,1.0804,1.0805,1.087,1.0857,1.0857,1.0861,1.0888,1.0891,1.0893,1.0857,1.0857,1.0857,0,0,1.0299,1.0337,1.0375,1.041,1.0463,1.0493,1.0502,1.056,1.0581,1.0632,1.0655,1.069,1.0762,1.0796,1.0823,1.0856,1.0871,1.0869,1.0873,1.0899,1.0901,1.0904,1.0915,1.0918,1.0872,1.0872,1.0872,0,1.0292,1.0355,1.0392,1.0434,1.0463,1.0492,1.0531,1.0562,1.0626,1.0645,1.0645,1.0736,1.0771,1.0829,1.0837,1.0858,1.0869,1.0862,1.0898,1.0901,1.0904,1.0915,1.0919,1.0871,1.0871,1.0871,1.0872,0,1.0344,1.0387,1.0411,1.0473,1.0505,1.0545,1.0586,1.0614,1.0634,1.0664,1.0715,1.0758,1.0809,1.0825,1.0844,1.0885,1.0884,1.0891,1.089,1.0906,1.0917,1.0921,1.087,1.0871,1.0871,1.0871,0,0,1.0349,1.0431,1.0439,1.0467,1.0528,1.0562,1.0602,1.0653,1.0675,1.0718,1.0752,1.0813,1.0819,1.0849,1.0873,1.0896,1.0918,1.09,1.0901,1.0901,1.0965,1.0959,1.0964,1.0929,1.093,1.093,1.0961,0,1.0377,1.0452,1.0486,1.0545,1.0585,1.0614,1.0649,1.0689,1.0718,1.0755,1.0786,1.0828,1.0834,1.0852,1.0877,1.091,1.0932,1.0909,1.096,1.0961,1.0946,1.097,1.0964,1.0991,1.0966,1.0966,1.0967,0,1.042,1.0464,1.0527,1.0583,1.0601,1.0632,1.0681,1.0716,1.0762,1.0782,1.0815,1.0838,1.088,1.0877,1.0935,1.0919,1.0942,1.0961,1.0963,1.0969,1.0964,1.0975,1.1,1.1004,1.0974,1.0974,1.0973,0,1.0417,1.0492,1.0539,1.0562,1.0629,1.065,1.0678,1.0724,1.0752,1.0794,1.0812,1.0859,1.0884,1.0919,1.0952,1.0947,1.1007,1.1007,1.1024,1.1023,1.1035,1.1033,1.1063,1.105,1.105,1.105,1.105,0,1.0444,1.0482,1.0538,1.0567,1.061,1.0648,1.0689,1.0719,1.0759,1.0794,1.0821,1.0852,1.0895,1.0932,1.0959,1.1003,1.1014,1.103,1.1036,1.1027,1.1025,1.1042,1.1041,1.1051,1.1051,1.1051,1.105,0,1.0447,1.0487,1.0541,1.0599,1.0615,1.0643,1.0693,1.0722,1.0752,1.0795,1.0808,1.0855,1.0899,1.0937,1.0995,1.1013,1.1058,1.1066,1.1043,1.1046,1.106,1.1058,1.1101,1.1109,1.1091,1.1092,1.1092,0,1.0462,1.0492,1.0554,1.058,1.0608,1.0649,1.0678,1.0717,1.0745,1.08,1.0822,1.0868,1.0908,1.0978,1.1016,1.1061,1.107,1.1082,1.1077,1.1066,1.1069,1.1067,1.1069,1.1082,1.1082,1.1082,1.1082,0,1.0484,1.0502,1.0543,1.0592,1.0626,1.0665,1.0706,1.0725,1.0771,1.0801,1.0848,1.0879,1.0939,1.0984,1.1033,1.1061,1.1079,1.1083,1.1089,1.108,1.1065,1.1073,1.1043,1.1082,1.1082,1.1082,1.1082,1.1082,1.0493,1.052,1.0568,1.0613,1.0648,1.0685,1.0715,1.0749,1.0789,1.0841,1.0861,1.0909,1.0953,1.1021,1.1049,1.1085,1.1088,1.1097,1.1099,1.11,1.1099,1.106,1.1095,1.1095,1.1095,1.1095,1.1095,0,1.0515,1.0547,1.0589,1.0645,1.068,1.0695,1.074,1.0768,1.081,1.085,1.0889,1.0942,1.0986,1.1028,1.1075,1.1096,1.1105,1.1107,1.1105,1.1111,1.1094,1.1084,1.1098,1.1098,1.1098,1.1098,1.1098,1.1098,1.0531,1.0578,1.0602,1.0666,1.0698,1.0745,1.077,1.0803,1.0836,1.0894,1.0932,1.0959,1.1,1.105,1.1091,1.1102,1.1117,1.1117,1.113,1.1113,1.1112,1.1111,1.1102,1.112,1.112,1.1144,1.1144,1.1144]},{"header":{"parameterUnit":"m.s-1","parameterCategory":1,"la1":30.2991,"la2":30.254,"lo1":-89.0895,"lo2":-89.0444,"dy":0.0017,"dx":0.0017,"nx":28,"ny":28,"refTime":"2025-04-28T03:00:00:Z","depth":0,"parameterNumber":3,"parameterNumberName":"V-component_of_WINDS"},"data":[0,0,0,0,0,0,0,0,0,0,0,0,0,0,0,0,0,0,0,0,0,0,0,0,0,0,0,0,0,0,0,0,0,0,0,0,0,0,0,0,0,0,0,0,0,0,0,0,0,0,0,0,0,0,0,0,0,0,4.0994,4.0994,0,4.0981,4.0981,4.0981,4.0928,4.0927,4.0926,4.0925,4.0912,4.0913,4.0914,0,0,0,0,0,0,0,0,0,0,0,0,0,4.0975,4.0975,4.0994,4.0994,4.0994,4.0981,4.0981,4.0981,4.0929,4.0927,4.0926,4.0924,4.0912,4.0913,4.0914,0,0,0,0,0,0,0,0,0,0,0,0,0,4.0975,4.0976,4.0994,4.0966,4.0964,4.0981,4.0981,4.0981,4.0929,4.0927,4.0925,4.0924,4.0911,4.0913,4.0914,4.0957,0,0,4.0917,4.0918,0,0,0,0,0,0,0,0,4.0975,4.0975,4.0971,4.0968,4.0965,4.0955,4.0969,4.0973,4.0929,4.0942,4.0925,4.0923,4.0928,4.0927,4.0929,4.0957,4.0956,4.0917,4.0918,4.0919,4.0919,0,0,0,0,0,0,0,4.0975,4.0976,4.0989,4.0971,4.0967,4.0955,4.0953,4.097,4.0945,4.0941,4.0937,4.0936,4.0926,4.0928,4.0928,4.0956,4.0917,4.0918,4.0919,4.092,4.1019,4.1021,0,0,0,0,0,0,4.0979,4.0976,4.099,4.0989,4.0966,4.0957,4.0954,4.096,4.0945,4.0941,4.0938,4.0934,4.0927,4.0927,4.0928,4.0977,4.0919,4.092,4.092,4.1017,4.1019,4.1022,0,0,0,0,0,0,4.0979,4.098,4.099,4.0981,4.0982,4.0959,4.0966,4.0961,4.0963,4.0943,4.0938,4.0944,4.0925,4.0926,4.095,4.0976,4.092,4.0921,4.1015,4.1018,4.102,4.1077,0,0,0,0,0,0,4.0978,4.0981,4.0997,4.0982,4.0982,4.1013,4.0967,4.0962,4.0965,4.0959,4.0948,4.0944,4.0924,4.0949,4.0952,4.0977,4.0922,4.1012,4.1016,4.102,4.1073,4.1082,4.109,0,0,0,0,0,4.0978,4.1013,4.0998,4.1,4.1002,4.1014,4.1015,4.0991,4.0967,4.0983,4.097,4.0944,4.0973,4.0952,4.0954,4.098,4.1011,4.1015,4.1019,4.1069,4.108,4.1089,0,0,0,0,0,0,4.1032,4.1011,4.0993,4.1025,4.1022,4.1006,4.1025,4.1003,4.1006,4.1001,4.0972,4.097,4.0999,4.0992,4.0969,4.1022,4.0988,4.0993,4.1025,4.1035,4.1043,4.1043,4.0923,0,0,0,0,0,4.1047,4.1059,4.104,4.1071,4.107,4.1048,4.1053,4.1035,4.103,4.1028,4.1017,4.1014,4.1022,4.1028,4.1035,4.1072,4.1069,4.1092,4.11,4.1107,4.1111,4.113,4.114,4.1036,4.1036,4.1036,0,0,4.108,4.107,4.1079,4.1081,4.1076,4.1089,4.1047,4.1062,4.1072,4.1031,4.1053,4.1045,4.1039,4.107,4.1084,4.1066,4.1139,4.1112,4.1118,4.1118,4.1136,4.1146,4.1154,4.1039,4.1038,4.1038,0,0,4.1145,4.1139,4.1163,4.1159,4.1153,4.1138,4.1144,4.1131,4.1124,4.1146,4.1116,4.1127,4.1142,4.1139,4.1139,4.1205,4.1181,4.1208,4.125,4.1269,4.1278,4.1285,4.1308,4.1316,4.1213,4.1213,4.1213,0,4.1186,4.1204,4.1178,4.1196,4.1198,4.1162,4.1186,4.1184,4.118,4.1182,4.1163,4.1181,4.1174,4.1204,4.122,4.1222,4.1228,4.1209,4.1278,4.1285,4.1292,4.1313,4.1322,4.1216,4.1216,4.1215,4.1215,0,4.1254,4.1268,4.1288,4.1285,4.1289,4.131,4.1288,4.1296,4.1278,4.1266,4.1289,4.128,4.1284,4.129,4.1273,4.1318,4.1307,4.1284,4.1248,4.1305,4.1325,4.1333,4.1221,4.122,4.1219,4.1218,0,0,4.1352,4.1335,4.1343,4.1341,4.1332,4.1342,4.1362,4.1366,4.1373,4.1372,4.1387,4.1401,4.1379,4.138,4.1362,4.1379,4.1431,4.1354,4.1353,4.1368,4.148,4.1497,4.1507,4.1416,4.1417,4.1419,4.148,0,4.1414,4.1446,4.1424,4.146,4.1471,4.1438,4.1455,4.1451,4.1441,4.1449,4.1437,4.1448,4.1418,4.1419,4.1434,4.1422,4.1453,4.1417,4.143,4.1431,4.1432,4.1518,4.1536,4.1594,4.1488,4.1489,4.149,0,4.149,4.1492,4.1529,4.1517,4.1521,4.1537,4.1539,4.1548,4.1544,4.1535,4.1536,4.1514,4.1533,4.1499,4.1524,4.15,4.1505,4.15,4.1501,4.1501,4.1463,4.1519,4.1613,4.1621,4.1502,4.1501,4.15,0,4.1556,4.1569,4.1592,4.1592,4.158,4.1591,4.1587,4.158,4.1584,4.1587,4.1589,4.1593,4.1596,4.16,4.158,4.1557,4.1608,4.1573,4.1601,4.1602,4.1612,4.1612,4.1707,4.1617,4.1616,4.1616,4.1616,0,4.1627,4.1651,4.1622,4.1637,4.1663,4.1638,4.1664,4.1656,4.1651,4.1663,4.1635,4.1647,4.1621,4.1631,4.1615,4.1639,4.164,4.1633,4.1629,4.1635,4.1636,4.1637,4.1632,4.1619,4.1618,4.1618,4.1617,0,4.1706,4.1687,4.1711,4.1697,4.1695,4.1714,4.1703,4.1716,4.1703,4.172,4.1722,4.1703,4.1713,4.1694,4.1702,4.1691,4.1724,4.1714,4.1726,4.1722,4.1752,4.1749,4.185,4.1862,4.1765,4.1766,4.1766,0,4.1751,4.1769,4.1757,4.1764,4.1761,4.1771,4.1775,4.1752,4.1757,4.1754,4.1767,4.1775,4.178,4.1798,4.1785,4.1791,4.178,4.1815,4.178,4.1786,4.178,4.1779,4.178,4.1822,4.1823,4.1824,4.1825,0,4.1835,4.1825,4.1832,4.1836,4.1841,4.1843,4.1843,4.185,4.1825,4.1833,4.1843,4.1847,4.1855,4.1863,4.1866,4.1861,4.1839,4.1836,4.1843,4.1849,4.1855,4.1852,4.1744,4.1833,4.1832,4.1832,4.1831,4.1831,4.1898,4.1912,4.1906,4.1914,4.1912,4.1913,4.1925,4.1914,4.1922,4.1926,4.1912,4.1926,4.1921,4.1923,4.1921,4.1931,4.1915,4.1925,4.1928,4.193,4.1935,4.1854,4.1932,4.1931,4.1931,4.1931,4.1931,0,4.1979,4.1974,4.1982,4.1983,4.199,4.1969,4.1968,4.1975,4.1987,4.1985,4.199,4.2002,4.201,4.1998,4.2004,4.2015,4.2005,4.2017,4.2016,4.2015,4.1949,4.1942,4.2025,4.2025,4.2025,4.2025,4.2025,4.2025,4.2022,4.2045,4.2035,4.2056,4.2051,4.2063,4.2065,4.2065,4.2063,4.2078,4.2084,4.2076,4.207,4.2076,4.2082,4.2079,4.2082,4.2098,4.2091,4.2029,4.202,4.2011,4.2004,4.2099,4.2099,4.2156,4.2156,4.2157]}]]